Tracking 25693 objects as of 1-Jul-2022
HD Live streaming from Space Station
objects crossing your sky now

FENGYUN 1C DEB

Track FENGYUN 1C DEB now!
10-day predictions


NORAD ID: 35148
Int'l Code: 1999-025DMC
Perigee: 641.2 km
Apogee: 764.2 km
Inclination: 99.0 °
Period: 98.7 minutes
Semi major axis: 7073 km
RCS: 0.0118 m2 (small)
Launch date: May 10, 1999
Source: People's Republic of China (PRC)
Launch site: Taiyaun Space Center, China (TSC)

Note: This is SATELLITE DEBRIS
aabbcc
Your satellite tracking list
Your tracking list is empty




NASA's NSSDC Master Catalog

Two Line Element Set (TLE):
1 35148U 99025DMC 22181.82387429  .00001827  00000-0  37895-3 0  9996
2 35148  98.9622 212.8982 0086955  15.8422 344.5464 14.59263557778634
Source of the keplerian elements: AFSPC